[[{"header":{"parameterUnit":"m.s-1","parameterCategory":2,"la1":30.2991,"la2":30.254,"lo1":-89.0895,"lo2":-89.0444,"dy":0.0017,"dx":0.0017,"nx":28,"ny":28,"refTime":"2024-07-23T09:00:00:Z","depth":"0","parameterNumber":2,"parameterNumberName":"U-component_of_CURRENTS"},"data":[0,0,0,0,0,0,0,0,0,0,0,0,0,0,0,0,0,0,0,0,0,0,0,0,0,0,0,0,0,0,0,0,0,0,0,0,0,0,0,0,0,0,0,0,0,0,0,0,0,0,0,0,0,0,0,0,0,0,0.3014,0.3015,0,0.3067,0.3067,0.3067,0.3047,0.3046,0.3045,0.3044,0.3027,0.3027,0.3028,0,0,0,0,0,0,0,0,0,0,0,0,0,0.2933,0.2934,0.3014,0.3015,0.3016,0.3067,0.3067,0.3067,0.3047,0.3046,0.3045,0.3044,0.3027,0.3027,0.3028,0,0,0,0,0,0,0,0,0,0,0,0,0,0.2972,0.2935,0.3013,0.3015,0.3016,0.3066,0.3067,0.3067,0.3047,0.3046,0.3045,0.3043,0.3027,0.3027,0.3028,0.3056,0,0,0.3029,0.3029,0,0,0,0,0,0,0,0,0.2969,0.2974,0.3013,0.3015,0.3016,0.3052,0.3033,0.3062,0.3047,0.3031,0.3044,0.3043,0.3033,0.3033,0.304,0.3055,0.3055,0.3029,0.303,0.303,0.303,0,0,0,0,0,0,0,0.2967,0.2972,0.303,0.3015,0.3016,0.3026,0.3029,0.3038,0.3034,0.3032,0.3032,0.3045,0.3032,0.304,0.304,0.3054,0.3029,0.303,0.303,0.303,0.3112,0.3114,0,0,0,0,0,0,0.2968,0.2969,0.3029,0.3032,0.2994,0.3029,0.3032,0.3039,0.3035,0.3035,0.3046,0.3044,0.304,0.3039,0.3039,0.3123,0.303,0.303,0.3031,0.311,0.3112,0.3114,0,0,0,0,0,0,0.2966,0.2973,0.3027,0.3006,0.3014,0.3032,0.3039,0.304,0.3052,0.3047,0.3044,0.3056,0.3039,0.3038,0.3055,0.312,0.303,0.3031,0.3108,0.3111,0.3113,0.3258,0,0,0,0,0,0,0.2963,0.2971,0.2977,0.3006,0.3015,0.3072,0.3041,0.3042,0.3063,0.3061,0.3055,0.3052,0.3038,0.3054,0.3055,0.3119,0.3031,0.3106,0.3109,0.3112,0.3251,0.3266,0.3278,0,0,0,0,0,0.296,0.2984,0.2976,0.2984,0.3021,0.3074,0.3081,0.3086,0.3065,0.3086,0.3074,0.3052,0.3077,0.3056,0.3057,0.3122,0.3104,0.3108,0.3112,0.3245,0.3263,0.3278,0,0,0,0,0,0,0.2961,0.2985,0.2977,0.3008,0.3042,0.3073,0.3096,0.3094,0.3103,0.3094,0.3073,0.3071,0.3116,0.309,0.3067,0.3153,0.3089,0.3094,0.319,0.3206,0.3219,0.3263,0.3032,0,0,0,0,0,0.2962,0.2979,0.301,0.3037,0.3054,0.3072,0.3092,0.3099,0.3113,0.3115,0.3113,0.3111,0.3136,0.3144,0.3153,0.3196,0.3237,0.3237,0.3251,0.3262,0.3297,0.3422,0.3452,0.3128,0.3128,0.3128,0,0,0.2969,0.2987,0.2995,0.3038,0.3059,0.3108,0.3081,0.3122,0.3168,0.3113,0.3162,0.3159,0.3156,0.3212,0.323,0.3197,0.3376,0.3268,0.3278,0.3307,0.343,0.3462,0.349,0.3131,0.3131,0.313,0,0,0.3014,0.3009,0.3046,0.3077,0.312,0.3137,0.3152,0.3187,0.3206,0.3251,0.3234,0.3272,0.3284,0.332,0.3334,0.3425,0.3444,0.3418,0.3528,0.3648,0.3677,0.3703,0.3805,0.3838,0.3424,0.3425,0.3425,0,0.3024,0.3078,0.307,0.3122,0.3165,0.3155,0.3223,0.3244,0.3281,0.3326,0.3279,0.337,0.3351,0.3467,0.3491,0.3464,0.3527,0.3469,0.3672,0.3698,0.3723,0.382,0.3856,0.3432,0.3431,0.343,0.343,0,0.3092,0.3149,0.318,0.3236,0.3273,0.3334,0.3364,0.3403,0.3412,0.3446,0.355,0.3543,0.3604,0.3606,0.3573,0.3741,0.3729,0.368,0.3642,0.3765,0.3858,0.3893,0.3443,0.344,0.3438,0.3436,0,0,0.3095,0.321,0.3222,0.3294,0.3346,0.3397,0.3467,0.3563,0.3638,0.3666,0.3793,0.383,0.3834,0.385,0.3833,0.3927,0.4131,0.3882,0.3884,0.4003,0.4413,0.4272,0.4295,0.4131,0.4137,0.4142,0.4413,0,0.3166,0.3303,0.3331,0.3471,0.3554,0.3575,0.365,0.3721,0.377,0.3875,0.3915,0.4007,0.3925,0.3968,0.4056,0.4106,0.4229,0.4063,0.4257,0.4264,0.4141,0.4332,0.4023,0.4226,0.4446,0.4452,0.4456,0,0.322,0.3324,0.3472,0.3633,0.3667,0.3733,0.3868,0.3939,0.4057,0.41,0.4198,0.4213,0.435,0.4252,0.446,0.4363,0.4418,0.4453,0.4464,0.4311,0.4188,0.4135,0.4281,0.4133,0.4509,0.4505,0.4501,0,0.3245,0.3421,0.3555,0.3604,0.3761,0.3838,0.3912,0.4018,0.4097,0.4258,0.4327,0.4471,0.4544,0.4655,0.4675,0.4608,0.4901,0.4808,0.4755,0.4745,0.4507,0.4464,0.4548,0.5016,0.5015,0.5014,0.5013,0,0.3312,0.3426,0.3586,0.3665,0.3828,0.3904,0.4054,0.4141,0.4269,0.4361,0.4449,0.4539,0.4653,0.478,0.4807,0.4887,0.5015,0.4841,0.4832,0.4543,0.4502,0.4376,0.4319,0.5024,0.5022,0.502,0.5018,0,0.3327,0.3426,0.3601,0.3791,0.3848,0.3961,0.4114,0.4207,0.4328,0.4454,0.451,0.4661,0.4808,0.491,0.5093,0.5037,0.4979,0.5135,0.4773,0.4716,0.4455,0.4416,0.4427,0.4315,0.5138,0.5137,0.5135,0,0.335,0.3443,0.3666,0.3755,0.3849,0.4003,0.4083,0.4221,0.4302,0.4484,0.4545,0.4738,0.4811,0.5042,0.5016,0.5109,0.4963,0.4862,0.4661,0.4462,0.4415,0.4284,0.418,0.4421,0.4414,0.4408,0.4404,0,0.341,0.3479,0.3624,0.379,0.3906,0.4028,0.4156,0.4211,0.4336,0.4419,0.454,0.4627,0.4798,0.4715,0.481,0.481,0.457,0.4744,0.4649,0.3978,0.3736,0.361,0.4224,0.4353,0.4358,0.4362,0.4364,0.4366,0.3434,0.3526,0.368,0.3829,0.3946,0.4015,0.4024,0.4114,0.418,0.4188,0.4386,0.4372,0.4366,0.4434,0.4439,0.4182,0.4276,0.397,0.3985,0.3909,0.3648,0.4145,0.4172,0.4176,0.4179,0.4182,0.4185,0,0.345,0.3546,0.3692,0.3834,0.3885,0.3966,0.4027,0.3947,0.39,0.3954,0.3984,0.387,0.3768,0.3767,0.358,0.342,0.3301,0.3314,0.3054,0.3027,0.356,0.3366,0.308,0.308,0.308,0.3081,0.3081,0.3081,0.346,0.357,0.3638,0.3718,0.3784,0.3724,0.3694,0.3578,0.3551,0.3355,0.3228,0.3249,0.3294,0.3164,0.2945,0.2874,0.2688,0.2512,0.2652,0.2979,0.3039,0.3097,0.2901,0.2523,0.2522,0.1907,0.1902,0.1898]},{"header":{"parameterUnit":"m.s-1","parameterCategory":2,"la1":30.2991,"la2":30.254,"lo1":-89.0895,"lo2":-89.0444,"dy":0.0017,"dx":0.0017,"nx":28,"ny":28,"refTime":"2024-07-23T09:00:00:Z","depth":"0","parameterNumber":3,"parameterNumberName":"V-component_of_CURRENTS"},"data":[0,0,0,0,0,0,0,0,0,0,0,0,0,0,0,0,0,0,0,0,0,0,0,0,0,0,0,0,0,0,0,0,0,0,0,0,0,0,0,0,0,0,0,0,0,0,0,0,0,0,0,0,0,0,0,0,0,0,-0.0264,-0.0265,0,-0.0344,-0.0345,-0.0346,-0.0391,-0.0391,-0.0392,-0.0392,-0.0444,-0.0445,-0.0446,0,0,0,0,0,0,0,0,0,0,0,0,0,-0.0202,-0.0203,-0.0264,-0.0265,-0.0266,-0.0344,-0.0345,-0.0346,-0.0391,-0.0391,-0.0392,-0.0392,-0.0443,-0.0445,-0.0446,0,0,0,0,0,0,0,0,0,0,0,0,0,-0.0249,-0.0203,-0.0263,-0.0298,-0.0302,-0.0344,-0.0345,-0.0346,-0.0391,-0.0391,-0.0392,-0.0392,-0.0443,-0.0444,-0.0446,-0.045,0,0,-0.0451,-0.0452,0,0,0,0,0,0,0,0,-0.0247,-0.0251,-0.0292,-0.0296,-0.0301,-0.0359,-0.0342,-0.038,-0.0391,-0.0356,-0.0392,-0.0392,-0.0413,-0.0417,-0.043,-0.0452,-0.0454,-0.0452,-0.0453,-0.0453,-0.0454,0,0,0,0,0,0,0,-0.0243,-0.0249,-0.0294,-0.0293,-0.0298,-0.0328,-0.0335,-0.035,-0.038,-0.0359,-0.0363,-0.0373,-0.0415,-0.0429,-0.0432,-0.0455,-0.0452,-0.0453,-0.0454,-0.0455,-0.0477,-0.0476,0,0,0,0,0,0,-0.0232,-0.0245,-0.0292,-0.0297,-0.0275,-0.0329,-0.0336,-0.0339,-0.0381,-0.0388,-0.0373,-0.0375,-0.0426,-0.043,-0.0434,-0.0434,-0.0453,-0.0455,-0.0456,-0.0477,-0.0477,-0.0476,0,0,0,0,0,0,-0.023,-0.0235,-0.0289,-0.0274,-0.0283,-0.0329,-0.0332,-0.034,-0.0351,-0.0392,-0.0398,-0.0375,-0.0426,-0.0431,-0.0441,-0.0436,-0.0456,-0.0457,-0.0478,-0.0477,-0.0476,-0.0438,0,0,0,0,0,0,-0.0228,-0.0234,-0.0228,-0.0273,-0.0284,-0.0298,-0.0332,-0.0342,-0.0357,-0.0361,-0.0395,-0.0401,-0.0427,-0.0438,-0.0442,-0.0439,-0.0459,-0.0478,-0.0477,-0.0477,-0.044,-0.0436,-0.0433,0,0,0,0,0,-0.0225,-0.0212,-0.0227,-0.0233,-0.0275,-0.0297,-0.0305,-0.0339,-0.0357,-0.0351,-0.038,-0.04,-0.0436,-0.0439,-0.0444,-0.0441,-0.0479,-0.0478,-0.0477,-0.0441,-0.0437,-0.0433,0,0,0,0,0,0,-0.0184,-0.0217,-0.0234,-0.0232,-0.0257,-0.0305,-0.0304,-0.0331,-0.0351,-0.0352,-0.0393,-0.04,-0.0408,-0.0426,-0.0428,-0.0444,-0.0461,-0.0461,-0.0432,-0.0428,-0.0424,-0.0416,-0.046,0,0,0,0,0,-0.0172,-0.0168,-0.0209,-0.0205,-0.0213,-0.0258,-0.0271,-0.0293,-0.0321,-0.0331,-0.036,-0.0387,-0.0409,-0.0418,-0.0437,-0.0443,-0.0436,-0.0444,-0.0441,-0.0438,-0.0434,-0.042,-0.0414,-0.0473,-0.0473,-0.0473,0,0,-0.0157,-0.0173,-0.0173,-0.0196,-0.0217,-0.0227,-0.0265,-0.0275,-0.0287,-0.0331,-0.0347,-0.0373,-0.0407,-0.0418,-0.0423,-0.0432,-0.0413,-0.0436,-0.0434,-0.0432,-0.0418,-0.0412,-0.0407,-0.0472,-0.0472,-0.0472,0,0,-0.0126,-0.0135,-0.0125,-0.014,-0.0165,-0.0193,-0.0192,-0.0233,-0.0251,-0.0268,-0.0307,-0.0328,-0.0359,-0.0388,-0.0407,-0.0392,-0.0394,-0.0397,-0.0375,-0.0361,-0.0355,-0.0351,-0.0314,-0.0306,-0.0396,-0.0396,-0.0396,0,-0.0109,-0.011,-0.0125,-0.0122,-0.0139,-0.0174,-0.0178,-0.0196,-0.0237,-0.0255,-0.0262,-0.032,-0.0347,-0.0375,-0.0374,-0.0385,-0.0366,-0.0389,-0.0355,-0.0351,-0.0347,-0.031,-0.0302,-0.0394,-0.0394,-0.0395,-0.0395,0,-0.0075,-0.0081,-0.0073,-0.0086,-0.0096,-0.0103,-0.0135,-0.0146,-0.0174,-0.0205,-0.0232,-0.0268,-0.0305,-0.0317,-0.0343,-0.0339,-0.0329,-0.035,-0.0364,-0.0338,-0.0301,-0.0294,-0.0391,-0.0392,-0.0393,-0.0393,0,0,-0.0041,-0.0051,-0.0051,-0.0064,-0.0084,-0.0094,-0.0101,-0.0134,-0.0144,-0.0173,-0.0189,-0.0235,-0.0257,-0.0278,-0.0312,-0.0305,-0.0259,-0.0311,-0.0312,-0.027,-0.02,-0.0209,-0.0202,-0.027,-0.0269,-0.0268,-0.0177,0,-0.0024,-0.0016,-0.0028,-0.0035,-0.0044,-0.0073,-0.0081,-0.0106,-0.0129,-0.0142,-0.018,-0.0197,-0.0241,-0.0248,-0.0253,-0.0253,-0.0241,-0.028,-0.0235,-0.0233,-0.0241,-0.0195,-0.0184,-0.0104,-0.017,-0.0169,-0.0168,0,0.0002,-0.0006,-0.0002,-0.0033,-0.0037,-0.004,-0.0067,-0.0076,-0.0097,-0.011,-0.0132,-0.0152,-0.0154,-0.0188,-0.0172,-0.019,-0.0192,-0.0193,-0.019,-0.0209,-0.0229,-0.0145,-0.0088,-0.0234,-0.0157,-0.0157,-0.0158,0,0.0022,0.0005,0.0005,-0.0002,-0.0027,-0.0034,-0.0049,-0.0069,-0.0055,-0.0076,-0.0042,-0.0086,-0.0048,-0.008,-0.0078,-0.0117,-0.0037,-0.0095,-0.0107,-0.0106,-0.0095,-0.0096,-0.0173,-0.0084,-0.0084,-0.0084,-0.0085,0,0.0038,0.0031,0.0014,0.0013,0.0012,-0.0015,-0.0006,-0.0025,-0.0009,0.0048,-0.0013,0.0064,-0.0011,0.0023,-0.003,-0.0019,0.0005,-0.0085,-0.0083,-0.008,-0.0081,-0.0208,-0.0298,-0.0081,-0.0082,-0.0082,-0.0083,0,0.0064,0.0056,0.005,0.0026,0.0027,0.0029,0.0052,0.0072,0.0077,0.0165,0.0181,0.0218,0.0274,0.02,0.0191,0.0087,-0.0009,0.0051,0.0071,0.0071,-0.013,-0.0217,-0.027,-0.0325,0.0035,0.0035,0.0035,0,0.0084,0.0085,0.0076,0.0096,0.0091,0.0098,0.0123,0.0119,0.0177,0.0293,0.0371,0.0443,0.0556,0.0521,0.0345,0.0244,0.0083,0.0125,0.0021,-0.0126,-0.0221,-0.0288,-0.0337,0.0069,0.007,0.007,0.0071,0,0.0111,0.0111,0.0111,0.0156,0.0186,0.022,0.0267,0.0345,0.0394,0.0523,0.0736,0.0844,0.0794,0.0731,0.0517,0.0395,0.0004,0.0128,-0.0026,-0.0203,-0.0275,-0.0331,0.0004,0.0074,0.0074,0.0074,0.0074,0.0073,0.0143,0.0154,0.0178,0.0226,0.0273,0.0373,0.0455,0.0568,0.0745,0.0988,0.1041,0.1268,0.1023,0.0768,0.0561,0.0095,0.0081,-0.0071,-0.0157,-0.0205,-0.0298,0.0049,0.0108,0.0107,0.0107,0.0107,0.0107,0,0.0196,0.0217,0.0256,0.0334,0.043,0.043,0.0582,0.0718,0.1003,0.1233,0.1458,0.1488,0.1202,0.0808,0.0191,-0.0134,-0.027,-0.0333,-0.0439,-0.0471,-0.0152,-0.0194,-0.0196,-0.0195,-0.0195,-0.0195,-0.0195,-0.0195,0.0232,0.0287,0.0309,0.0477,0.0549,0.0706,0.0823,0.105,0.1252,0.1597,0.1762,0.184,0.1515,0.0443,-0.0294,-0.0468,-0.0685,-0.0728,-0.0841,-0.0658,-0.0641,-0.0625,-0.0687,-0.0792,-0.0793,-0.1119,-0.1122,-0.1125]}],[{"header":{"parameterUnit":"m.s-1","parameterCategory":2,"la1":30.2991,"la2":30.254,"lo1":-89.0895,"lo2":-89.0444,"dy":0.0017,"dx":0.0017,"nx":28,"ny":28,"refTime":"2024-07-23T09:00:00:Z","depth":"2","parameterNumber":2,"parameterNumberName":"U-component_of_CURRENTS"},"data":[0,0,0,0,0,0,0,0,0,0,0,0,0,0,0,0,0,0,0,0,0,0,0,0,0,0,0,0,0,0,0,0,0,0,0,0,0,0,0,0,0,0,0,0,0,0,0,0,0,0,0,0,0,0,0,0,0,0,0.2232,0.2232,0,0.2265,0.2266,0.2267,0.228,0.228,0.2279,0.2279,0.2292,0.2293,0.2294,0,0,0,0,0,0,0,0,0,0,0,0,0,0.2216,0.2216,0.2232,0.2232,0.2232,0.2265,0.2266,0.2267,0.228,0.228,0.2279,0.2278,0.2291,0.2293,0.2294,0,0,0,0,0,0,0,0,0,0,0,0,0,0.2239,0.2216,0.2232,0.2238,0.2238,0.2265,0.2266,0.2267,0.2281,0.228,0.2279,0.2278,0.2291,0.2292,0.2294,0.2321,0,0,0.2298,0.2299,0,0,0,0,0,0,0,0,0.2237,0.224,0.2237,0.2238,0.2238,0.2263,0.2265,0.2282,0.2281,0.2271,0.2278,0.2277,0.2277,0.228,0.2296,0.2321,0.2322,0.2298,0.2299,0.23,0.23,0,0,0,0,0,0,0,0.2236,0.2239,0.2251,0.2237,0.2238,0.2251,0.2254,0.2269,0.2283,0.2272,0.2271,0.2266,0.2278,0.2295,0.2297,0.2322,0.2298,0.2299,0.23,0.2301,0.2386,0.2388,0,0,0,0,0,0,0.2219,0.2237,0.225,0.2251,0.2229,0.2252,0.2255,0.226,0.2283,0.2284,0.2267,0.2266,0.2293,0.2295,0.2297,0.2374,0.23,0.2301,0.2302,0.2385,0.2387,0.2388,0,0,0,0,0,0,0.2219,0.2221,0.2248,0.224,0.2243,0.2252,0.2259,0.2261,0.2289,0.2278,0.228,0.2291,0.2293,0.2295,0.2328,0.2372,0.2302,0.2303,0.2383,0.2385,0.2387,0.2498,0,0,0,0,0,0,0.2219,0.2221,0.2232,0.2239,0.2243,0.2274,0.2259,0.2262,0.2283,0.2284,0.23,0.2299,0.2292,0.2326,0.2329,0.2373,0.2304,0.2381,0.2384,0.2387,0.2493,0.2504,0.2514,0,0,0,0,0,0.2218,0.2231,0.2233,0.2234,0.2254,0.2275,0.228,0.2286,0.2285,0.2307,0.2319,0.23,0.2345,0.2329,0.2332,0.2377,0.238,0.2383,0.2387,0.2488,0.2502,0.2513,0,0,0,0,0,0,0.2226,0.2233,0.2235,0.2249,0.2265,0.2275,0.2295,0.2299,0.2328,0.2333,0.2325,0.2327,0.2375,0.2355,0.2338,0.2406,0.2357,0.2361,0.2433,0.2446,0.2456,0.2482,0.2305,0,0,0,0,0,0.2233,0.2247,0.2255,0.2268,0.2281,0.2295,0.2307,0.2313,0.233,0.2343,0.2357,0.2368,0.2391,0.2401,0.2417,0.2456,0.2487,0.2482,0.2493,0.2502,0.2524,0.266,0.2686,0.2399,0.2399,0.2399,0,0,0.2242,0.2242,0.2254,0.2271,0.2289,0.2322,0.2303,0.233,0.2352,0.2339,0.2392,0.2413,0.2411,0.2461,0.2479,0.2449,0.2589,0.2506,0.2514,0.2531,0.2666,0.2695,0.272,0.2401,0.2401,0.24,0,0,0.2266,0.2271,0.2299,0.2315,0.2336,0.2348,0.236,0.239,0.2401,0.2446,0.245,0.2499,0.2523,0.2546,0.2553,0.2627,0.2646,0.2627,0.27,0.2832,0.2859,0.2882,0.2917,0.2943,0.2626,0.2626,0.2626,0,0.2282,0.2282,0.2311,0.234,0.2342,0.2365,0.239,0.242,0.2456,0.2483,0.247,0.2579,0.2565,0.2651,0.267,0.2654,0.2713,0.2656,0.2852,0.2876,0.2898,0.2929,0.2956,0.2632,0.2631,0.2631,0.263,0,0.2311,0.2319,0.2335,0.2375,0.2415,0.2417,0.2463,0.251,0.2529,0.2562,0.2658,0.2683,0.2751,0.2752,0.2729,0.2877,0.2859,0.286,0.283,0.2935,0.2958,0.2985,0.264,0.2638,0.2636,0.2635,0,0,0.2319,0.2341,0.2348,0.2369,0.2404,0.2454,0.2507,0.2562,0.2621,0.2693,0.2781,0.2838,0.2894,0.2906,0.2917,0.3015,0.3183,0.3011,0.3016,0.3062,0.3444,0.3302,0.3316,0.3256,0.3262,0.3267,0.3383,0,0.2311,0.2356,0.2358,0.2417,0.2454,0.2482,0.2555,0.2639,0.2673,0.2779,0.2855,0.2943,0.2939,0.299,0.3105,0.3168,0.3267,0.3148,0.3321,0.3324,0.3202,0.3348,0.303,0.3099,0.3409,0.3413,0.3416,0,0.2334,0.2354,0.2403,0.2457,0.248,0.2547,0.2659,0.2725,0.2865,0.2898,0.3026,0.3064,0.3217,0.3196,0.3424,0.3367,0.3424,0.3467,0.3473,0.3328,0.3235,0.3051,0.3135,0.346,0.3457,0.3454,0.3451,0,0.2357,0.2383,0.2415,0.2429,0.2524,0.2584,0.2668,0.2804,0.2877,0.3011,0.3084,0.3239,0.3368,0.3492,0.3566,0.3524,0.381,0.3746,0.367,0.3656,0.3408,0.3362,0.3936,0.3936,0.3935,0.3935,0.3935,0,0.2328,0.2355,0.2453,0.2476,0.2579,0.268,0.2797,0.2878,0.3038,0.3147,0.3207,0.331,0.3473,0.3612,0.3647,0.3755,0.389,0.3719,0.3714,0.3426,0.3383,0.3712,0.3685,0.3939,0.3938,0.3938,0.3937,0,0.2336,0.2369,0.2428,0.2539,0.2597,0.272,0.2881,0.2964,0.3124,0.327,0.3324,0.3466,0.3601,0.3703,0.3884,0.3865,0.394,0.3941,0.3541,0.3486,0.3656,0.3633,0.384,0.3837,0.3834,0.3832,0.383,0,0.2316,0.2378,0.2492,0.2545,0.2588,0.2755,0.2858,0.3022,0.309,0.3331,0.3399,0.3574,0.3597,0.3795,0.3779,0.3804,0.3929,0.3544,0.339,0.3692,0.3666,0.3646,0.3627,0.3082,0.3074,0.3068,0.3062,0,0.2307,0.2375,0.2392,0.2511,0.262,0.2736,0.2888,0.2978,0.3172,0.3242,0.3363,0.3403,0.3539,0.3399,0.3461,0.3436,0.3494,0.3408,0.3923,0.3143,0.2985,0.2955,0.2961,0.3005,0.3011,0.3015,0.3018,0.302,0.2287,0.2286,0.234,0.245,0.2559,0.2711,0.2751,0.2858,0.2965,0.3026,0.3181,0.3114,0.3142,0.3009,0.2956,0.2941,0.3159,0.3021,0.3039,0.3064,0.2944,0.2789,0.2745,0.2749,0.2752,0.2755,0.2758,0,0.2248,0.224,0.229,0.2378,0.2453,0.2595,0.2724,0.2691,0.2697,0.2757,0.2738,0.2489,0.2396,0.2473,0.233,0.2332,0.2298,0.2261,0.2186,0.2245,0.2297,0.2135,0.1723,0.172,0.1717,0.1715,0,0,0.2207,0.2186,0.2199,0.2276,0.2364,0.2381,0.2444,0.2375,0.2339,0.2211,0.2121,0.2217,0.2346,0.1975,0.1942,0.1811,0.201,0.1742,0.257,0.2537,0.2585,0.2734,0.2552,0,0,0,0,0]},{"header":{"parameterUnit":"m.s-1","parameterCategory":2,"la1":30.2991,"la2":30.254,"lo1":-89.0895,"lo2":-89.0444,"dy":0.0017,"dx":0.0017,"nx":28,"ny":28,"refTime":"2024-07-23T09:00:00:Z","depth":"2","parameterNumber":3,"parameterNumberName":"V-component_of_CURRENTS"},"data":[0,0,0,0,0,0,0,0,0,0,0,0,0,0,0,0,0,0,0,0,0,0,0,0,0,0,0,0,0,0,0,0,0,0,0,0,0,0,0,0,0,0,0,0,0,0,0,0,0,0,0,0,0,0,0,0,0,0,-0.001,-0.0011,0,-0.0075,-0.0077,-0.0078,-0.0127,-0.0127,-0.0127,-0.0127,-0.0177,-0.0179,-0.018,0,0,0,0,0,0,0,0,0,0,0,0,0,0.0016,0.0016,-0.001,-0.0011,-0.0011,-0.0075,-0.0077,-0.0078,-0.0127,-0.0127,-0.0127,-0.0127,-0.0177,-0.0178,-0.018,0,0,0,0,0,0,0,0,0,0,0,0,0,-0.002,0.0016,-0.001,-0.0041,-0.0044,-0.0075,-0.0077,-0.0078,-0.0127,-0.0127,-0.0127,-0.0127,-0.0176,-0.0178,-0.018,-0.0188,0,0,-0.0186,-0.0187,0,0,0,0,0,0,0,0,-0.0018,-0.0021,-0.0036,-0.0039,-0.0042,-0.009,-0.0085,-0.0113,-0.0127,-0.0099,-0.0127,-0.0127,-0.0144,-0.0149,-0.0166,-0.0191,-0.0193,-0.0186,-0.0187,-0.0188,-0.0188,0,0,0,0,0,0,0,-0.0015,-0.0019,-0.004,-0.0036,-0.004,-0.007,-0.0075,-0.0091,-0.0123,-0.0102,-0.0105,-0.0106,-0.0146,-0.0164,-0.0168,-0.0194,-0.0186,-0.0188,-0.0189,-0.0189,-0.0227,-0.0227,0,0,0,0,0,0,0.0004,-0.0016,-0.0038,-0.0042,-0.0026,-0.0069,-0.0076,-0.0078,-0.0123,-0.0129,-0.0105,-0.0108,-0.0161,-0.0165,-0.0169,-0.0178,-0.0188,-0.019,-0.0191,-0.0227,-0.0227,-0.0227,0,0,0,0,0,0,0.0004,0.0002,-0.0035,-0.0028,-0.0034,-0.0069,-0.0071,-0.0079,-0.0095,-0.0125,-0.0132,-0.0114,-0.0161,-0.0167,-0.0181,-0.018,-0.019,-0.0192,-0.0227,-0.0227,-0.0227,-0.0196,0,0,0,0,0,0,0.0005,0.0003,0.0007,-0.0026,-0.0033,-0.0044,-0.0071,-0.008,-0.0094,-0.0098,-0.0134,-0.014,-0.0162,-0.0178,-0.0183,-0.0183,-0.0194,-0.0227,-0.0227,-0.0227,-0.0198,-0.0195,-0.0193,0,0,0,0,0,0.0007,0.0018,0.0007,0.0005,-0.0026,-0.0043,-0.005,-0.0078,-0.0094,-0.0096,-0.0123,-0.0138,-0.018,-0.0179,-0.0185,-0.0185,-0.0228,-0.0227,-0.0227,-0.0199,-0.0196,-0.0193,0,0,0,0,0,0,0.0031,0.0014,0.0001,0.0006,-0.0012,-0.0049,-0.0051,-0.0074,-0.0099,-0.0101,-0.0137,-0.0143,-0.0157,-0.0173,-0.0171,-0.0196,-0.0206,-0.0207,-0.0183,-0.018,-0.0178,-0.0155,-0.0195,0,0,0,0,0,0.004,0.0045,0.002,0.0025,0.0018,-0.0018,-0.0029,-0.0046,-0.0072,-0.0084,-0.0113,-0.0139,-0.0161,-0.0171,-0.0191,-0.0202,-0.0198,-0.0206,-0.0204,-0.0202,-0.0187,-0.0191,-0.0187,-0.0226,-0.0226,-0.0226,0,0,0.0048,0.0044,0.0044,0.0031,0.0012,0.0007,-0.0026,-0.0034,-0.0035,-0.0083,-0.0097,-0.0131,-0.0162,-0.0178,-0.0185,-0.019,-0.0186,-0.0202,-0.02,-0.0185,-0.019,-0.0186,-0.0183,-0.0226,-0.0226,-0.0226,0,0,0.0075,0.0066,0.0078,0.0068,0.0054,0.0032,0.0033,-0.0002,-0.0014,-0.0032,-0.0068,-0.0101,-0.0132,-0.016,-0.0176,-0.0172,-0.0174,-0.0179,-0.0149,-0.0154,-0.0151,-0.0148,-0.0121,-0.0116,-0.0178,-0.0178,-0.0178,0,0.0086,0.0105,0.0078,0.0088,0.0089,0.0047,0.0059,0.0038,0.0002,0.0002,-0.0026,-0.0083,-0.0123,-0.0138,-0.0148,-0.0167,-0.0155,-0.0158,-0.015,-0.0147,-0.0145,-0.0118,-0.0113,-0.0176,-0.0177,-0.0177,-0.0177,0,0.0121,0.0136,0.0145,0.0144,0.0132,0.0144,0.0112,0.0105,0.0079,0.0055,0.0034,-0.0029,-0.0058,-0.0088,-0.0122,-0.0126,-0.0117,-0.0147,-0.0154,-0.0138,-0.0112,-0.0107,-0.0174,-0.0175,-0.0175,-0.0176,0,0,0.0144,0.0169,0.0171,0.0193,0.0172,0.0172,0.017,0.0166,0.0203,0.0125,0.016,0.0058,0.0022,0.0001,-0.0052,-0.0075,-0.0065,-0.0101,-0.0102,-0.0068,-0.0042,-0.0085,-0.0084,-0.009,-0.009,-0.0089,-0.0024,0,0.0185,0.0232,0.0224,0.0262,0.0281,0.0255,0.0266,0.0251,0.0252,0.0277,0.0187,0.0194,0.0059,0.0065,0.0005,-0.003,-0.0052,-0.0077,-0.0067,-0.0066,-0.0102,-0.0081,-0.0082,-0.0029,-0.002,-0.0019,-0.0018,0,0.0219,0.0252,0.03,0.0348,0.0354,0.0365,0.0407,0.0402,0.0411,0.0424,0.0384,0.0354,0.029,0.0196,0.0096,0.0091,0.0025,-0.002,-0.0019,-0.0065,-0.0101,-0.0047,-0.0021,-0.001,-0.0011,-0.0011,-0.0012,0,0.0255,0.0308,0.0357,0.0368,0.04,0.0425,0.0423,0.0439,0.048,0.052,0.0585,0.0499,0.0486,0.0372,0.022,0.0186,0.0142,0.009,-0.0011,-0.0013,-0.0015,-0.0019,0.0036,0.0036,0.0036,0.0036,0.0036,0,0.0307,0.035,0.0386,0.0416,0.0495,0.0463,0.0557,0.0568,0.0616,0.0692,0.0642,0.0712,0.0529,0.0473,0.0315,0.0163,0.0204,0.0011,-0.0003,-0.0004,-0.0008,-0.0001,-0.0006,0.0038,0.0038,0.0037,0.0037,0,0.0347,0.0366,0.0442,0.0496,0.0516,0.0555,0.0633,0.0714,0.0735,0.0848,0.087,0.0879,0.0807,0.0627,0.0484,0.0301,0.0166,0.0101,0.0121,0.0105,0.0003,-0.0001,0.0031,0.003,0.0029,0.0028,0.0028,0,0.038,0.0416,0.0505,0.0571,0.0608,0.0672,0.0737,0.0763,0.0862,0.0952,0.1029,0.1014,0.1022,0.0791,0.0499,0.0255,0.0196,0.0091,-0.0006,0.0018,0.0001,-0.0002,-0.0005,0.0024,0.0024,0.0023,0.0023,0,0.0454,0.0482,0.0558,0.0686,0.0773,0.0869,0.0958,0.1042,0.1079,0.1205,0.132,0.1331,0.1101,0.0853,0.0494,0.0312,0.0123,0.0072,0.0118,0.0003,0.001,-0.0007,-0.0008,0.0018,0.0019,0.0019,0.0019,0.002,0.0523,0.0602,0.0702,0.0828,0.0932,0.104,0.1134,0.1246,0.1382,0.1488,0.1488,0.1476,0.1185,0.0716,0.0423,0.0099,0.0106,-0.0025,-0.0022,-0.0018,-0.0054,-0.0052,-0.0058,-0.0058,-0.0058,-0.0058,-0.0058,0,0.0609,0.07,0.0838,0.0989,0.1118,0.1133,0.1284,0.1363,0.1535,0.1576,0.1642,0.1354,0.1078,0.0741,0.0252,-0.0025,-0.0048,-0.0107,-0.0082,-0.0076,-0.0071,-0.0109,-0.0127,-0.0128,-0.0129,-0.0129,0,0,0.0666,0.0804,0.0877,0.1105,0.1214,0.137,0.1445,0.1539,0.1599,0.1628,0.1591,0.1504,0.1128,0.0765,0.0397,0.0129,0.0089,0.0076,0.0156,0.0235,0.0243,-0.0003,-0.0052,0,0,0,0,0]}],[{"header":{"parameterUnit":"m.s-1","parameterCategory":2,"la1":30.2991,"la2":30.254,"lo1":-89.0895,"lo2":-89.0444,"dy":0.0017,"dx":0.0017,"nx":28,"ny":28,"refTime":"2024-07-23T09:00:00:Z","depth":"4","parameterNumber":2,"parameterNumberName":"U-component_of_CURRENTS"},"data":[0,0,0,0,0,0,0,0,0,0,0,0,0,0,0,0,0,0,0,0,0,0,0,0,0,0,0,0,0,0,0,0,0,0,0,0,0,0,0,0,0,0,0,0,0,0,0,0,0,0,0,0,0,0,0,0,0,0,0.1129,0.1129,0,0.1161,0.1161,0.1162,0.1215,0.1216,0.1217,0.1218,0.1229,0.1228,0.1228,0,0,0,0,0,0,0,0,0,0,0,0,0,0.112,0.1119,0.1129,0.1129,0.1129,0.1161,0.1161,0.1162,0.1215,0.1216,0.1217,0.1218,0.1229,0.1228,0.1228,0,0,0,0,0,0,0,0,0,0,0,0,0,0.1135,0.1119,0.1128,0.1159,0.1162,0.1161,0.1161,0.1162,0.1215,0.1216,0.1218,0.1219,0.1229,0.1228,0.1228,0.1193,0,0,0.1225,0.1224,0,0,0,0,0,0,0,0,0.1134,0.1135,0.1154,0.1157,0.1161,0.1185,0.1162,0.1171,0.1214,0.1195,0.1218,0.122,0.1211,0.1212,0.1215,0.1194,0.1194,0.1225,0.1224,0.1224,0.1224,0,0,0,0,0,0,0,0.1133,0.1134,0.1142,0.1155,0.1158,0.1174,0.1178,0.1164,0.1195,0.1197,0.1201,0.1203,0.1213,0.1216,0.1216,0.1195,0.1225,0.1224,0.1223,0.1223,0.129,0.1292,0,0,0,0,0,0,0.1126,0.1133,0.1141,0.1143,0.115,0.1173,0.1177,0.1176,0.1195,0.12,0.1202,0.1206,0.1217,0.1217,0.1217,0.1273,0.1224,0.1223,0.1222,0.1288,0.1291,0.1293,0,0,0,0,0,0,0.1126,0.1126,0.1139,0.1139,0.1141,0.1171,0.117,0.1176,0.1209,0.1199,0.1204,0.1232,0.1218,0.1218,0.1242,0.127,0.1223,0.1222,0.1285,0.1289,0.1292,0.1323,0,0,0,0,0,0,0.1125,0.1126,0.1136,0.1138,0.1141,0.1154,0.1169,0.1176,0.1206,0.1212,0.1225,0.1227,0.1219,0.1243,0.1241,0.1268,0.1221,0.1282,0.1287,0.1291,0.1319,0.1327,0.1334,0,0,0,0,0,0.1125,0.1126,0.1136,0.1138,0.115,0.1154,0.1158,0.1184,0.1206,0.1219,0.1243,0.1228,0.127,0.1244,0.124,0.1268,0.128,0.1285,0.1291,0.1316,0.1325,0.1334,0,0,0,0,0,0,0.1128,0.1132,0.1143,0.1147,0.1158,0.1164,0.1184,0.1197,0.1225,0.1247,0.1239,0.1242,0.1275,0.1273,0.1244,0.1307,0.1279,0.1284,0.13,0.1309,0.1316,0.1301,0.122,0,0,0,0,0,0.1131,0.1142,0.1142,0.1153,0.116,0.1177,0.1189,0.1208,0.1225,0.1241,0.1258,0.1281,0.1288,0.1301,0.1308,0.1329,0.1342,0.1355,0.1362,0.1368,0.1358,0.1395,0.1404,0.131,0.131,0.131,0,0,0.1142,0.1142,0.1153,0.1156,0.1173,0.1175,0.119,0.1219,0.1236,0.1234,0.1285,0.13,0.13,0.1332,0.1348,0.1337,0.1414,0.1375,0.1379,0.1366,0.1401,0.141,0.1418,0.1314,0.1313,0.1313,0,0,0.1145,0.1165,0.1167,0.1177,0.1199,0.1203,0.1215,0.1243,0.1277,0.1313,0.1323,0.1357,0.1381,0.1387,0.1387,0.144,0.1447,0.1462,0.1485,0.1522,0.1529,0.1535,0.1606,0.1618,0.1471,0.1471,0.1471,0,0.1161,0.1147,0.1171,0.1171,0.1175,0.1214,0.121,0.1246,0.1287,0.1313,0.1341,0.1374,0.1401,0.1394,0.1446,0.1451,0.149,0.1443,0.1529,0.1535,0.154,0.161,0.1623,0.1473,0.1473,0.1473,0.1472,0,0.1153,0.1151,0.1158,0.1164,0.1176,0.1187,0.1221,0.1266,0.1316,0.135,0.1387,0.141,0.143,0.1457,0.1478,0.1525,0.1549,0.1526,0.1496,0.1551,0.1623,0.1636,0.1476,0.1475,0.1475,0.1474,0,0,0.116,0.1149,0.1154,0.1138,0.1171,0.1169,0.122,0.125,0.1294,0.1346,0.1375,0.1421,0.1453,0.1458,0.1473,0.1523,0.1643,0.1567,0.1568,0.162,0.1765,0.1643,0.1645,0.164,0.1642,0.1643,0.1813,0,0.1142,0.1101,0.1121,0.1105,0.1077,0.1136,0.1164,0.1218,0.13,0.1361,0.1382,0.1445,0.1444,0.1491,0.152,0.1606,0.1673,0.1601,0.1717,0.1721,0.159,0.1652,0.1647,0.1823,0.1825,0.1827,0.1829,0,0.1123,0.1081,0.104,0.1028,0.1031,0.1052,0.111,0.1158,0.1264,0.1337,0.1381,0.144,0.1503,0.152,0.1626,0.1587,0.1695,0.1755,0.1762,0.1633,0.1619,0.1749,0.1852,0.185,0.1848,0.1847,0.1845,0,0.1062,0.1035,0.0985,0.0985,0.0983,0.101,0.1051,0.1157,0.1226,0.1366,0.1445,0.1475,0.1536,0.1614,0.1761,0.1728,0.1897,0.1856,0.1832,0.1827,0.187,0.1861,0.196,0.196,0.196,0.1959,0.1959,0,0.1011,0.0977,0.0958,0.0932,0.0907,0.0958,0.102,0.1091,0.122,0.1316,0.1436,0.1498,0.1579,0.1686,0.1783,0.1838,0.1914,0.1842,0.1851,0.1889,0.188,0.1882,0.1871,0.1966,0.1964,0.1963,0.1962,0,0.0949,0.0934,0.0881,0.0872,0.0875,0.0882,0.1003,0.1062,0.1214,0.1346,0.1411,0.1552,0.1694,0.178,0.1941,0.1869,0.1957,0.1983,0.2065,0.2075,0.1861,0.185,0.1926,0.1923,0.192,0.1918,0.1916,0,0.0898,0.0857,0.0837,0.082,0.0827,0.0861,0.0892,0.1038,0.1135,0.1375,0.1419,0.1616,0.171,0.1808,0.1893,0.2015,0.2009,0.2014,0.1875,0.1851,0.1854,0.1847,0.184,0.1912,0.1911,0.1911,0.191,0,0.0789,0.0809,0.0774,0.0758,0.0776,0.0777,0.0862,0.0925,0.1126,0.1269,0.144,0.1548,0.1679,0.1753,0.187,0.195,0.1958,0.1985,0.1989,0.1858,0.1835,0.1838,0.1834,0.1901,0.1902,0.1903,0.1903,0,0.0735,0.0709,0.0702,0.0691,0.07,0.0698,0.075,0.0869,0.0975,0.1265,0.1316,0.1539,0.1678,0.1729,0.1842,0.1888,0.1843,0.1745,0.1761,0.1772,0.1633,0.1575,0.1575,0,0,0,0,0,0.0654,0.0641,0.0629,0.0611,0.063,0.0628,0.072,0.0798,0.1007,0.1102,0.1222,0.1381,0.1527,0.1613,0.1635,0.1738,0.1823,0.1745,0.1709,0.1849,0.186,0.1705,0,0,0,0,0,0,0.0618,0.0595,0.0603,0.055,0.0533,0.0537,0.0587,0.071,0.0784,0.1011,0.111,0.1262,0.1429,0.1524,0.1602,0.1629,0.1566,0.1875,0.187,0.1843,0.1853,0.1861,0.1706,0,0,0,0,0]},{"header":{"parameterUnit":"m.s-1","parameterCategory":2,"la1":30.2991,"la2":30.254,"lo1":-89.0895,"lo2":-89.0444,"dy":0.0017,"dx":0.0017,"nx":28,"ny":28,"refTime":"2024-07-23T09:00:00:Z","depth":"4","parameterNumber":3,"parameterNumberName":"V-component_of_CURRENTS"},"data":[0,0,0,0,0,0,0,0,0,0,0,0,0,0,0,0,0,0,0,0,0,0,0,0,0,0,0,0,0,0,0,0,0,0,0,0,0,0,0,0,0,0,0,0,0,0,0,0,0,0,0,0,0,0,0,0,0,0,0.0111,0.0111,0,0.0077,0.0076,0.0076,0.0054,0.0054,0.0054,0.0054,0.0035,0.0035,0.0034,0,0,0,0,0,0,0,0,0,0,0,0,0,0.0121,0.0121,0.0111,0.0111,0.0111,0.0077,0.0076,0.0076,0.0054,0.0054,0.0054,0.0054,0.0035,0.0035,0.0034,0,0,0,0,0,0,0,0,0,0,0,0,0,0.0104,0.0121,0.0111,0.0096,0.0095,0.0077,0.0076,0.0076,0.0054,0.0054,0.0054,0.0054,0.0036,0.0035,0.0034,0.0032,0,0,0.0032,0.0032,0,0,0,0,0,0,0,0,0.0105,0.0104,0.0099,0.0097,0.0095,0.007,0.0073,0.0062,0.0054,0.0068,0.0054,0.0054,0.0049,0.0047,0.0039,0.0031,0.003,0.0032,0.0032,0.0032,0.0031,0,0,0,0,0,0,0,0.0106,0.0105,0.0097,0.0098,0.0096,0.0079,0.0076,0.0071,0.0059,0.0067,0.0066,0.0063,0.0048,0.004,0.0039,0.003,0.0032,0.0032,0.0031,0.0031,-0.0,-0.0001,0,0,0,0,0,0,0.0115,0.0106,0.0098,0.0096,0.0101,0.0079,0.0076,0.0078,0.0059,0.0056,0.0063,0.0062,0.0041,0.004,0.0038,0.0039,0.0032,0.0031,0.0031,-0.0,-0.0001,-0.0001,0,0,0,0,0,0,0.0115,0.0114,0.0099,0.0101,0.0098,0.0079,0.0081,0.0077,0.0072,0.0056,0.0053,0.0062,0.0041,0.0039,0.0034,0.0038,0.0031,0.003,0.0,-0.0,-0.0001,0.0036,0,0,0,0,0,0,0.0115,0.0115,0.012,0.0101,0.0098,0.0095,0.0081,0.0076,0.0071,0.0069,0.0054,0.0052,0.0041,0.0035,0.0034,0.0037,0.0029,0.0001,0.0,-0.0001,0.0036,0.0037,0.0038,0,0,0,0,0,0.0116,0.0123,0.012,0.0119,0.0105,0.0095,0.0092,0.0077,0.0071,0.0072,0.0059,0.0053,0.0028,0.0035,0.0033,0.0036,0.0001,0.0,-0.0001,0.0035,0.0037,0.0038,0,0,0,0,0,0,0.0127,0.0121,0.0118,0.0122,0.0113,0.0092,0.0091,0.0081,0.0071,0.007,0.0054,0.0051,0.0044,0.0033,0.004,0.0021,0.0011,0.001,0.0039,0.004,0.0042,0.0077,0.0029,0,0,0,0,0,0.0133,0.014,0.0127,0.0132,0.0129,0.0111,0.0106,0.0097,0.0084,0.0079,0.0067,0.0051,0.0038,0.0035,0.002,0.0017,0.0002,0.0014,0.0015,0.0016,0.0042,-0.0004,-0.0004,-0.0004,-0.0004,-0.0004,0,0,0.0137,0.0137,0.0139,0.0135,0.0126,0.0134,0.0108,0.0103,0.0115,0.008,0.0087,0.0057,0.0036,0.0029,0.0025,0.0022,0.0007,0.0015,0.0017,0.0042,-0.0005,-0.0005,-0.0005,-0.0005,-0.0005,-0.0005,0,0,0.0155,0.0149,0.0164,0.0163,0.0158,0.0149,0.0151,0.0133,0.013,0.0126,0.0102,0.0077,0.0059,0.0044,0.0035,0.0035,0.0013,0.0022,0.0064,0.0018,0.0018,0.0018,0.0001,-0.0001,0.0025,0.0025,0.0025,0,0.0161,0.0183,0.0165,0.0182,0.0194,0.0161,0.0186,0.0174,0.0157,0.0163,0.0134,0.0094,0.0069,0.0067,0.0063,0.0041,0.002,0.0062,0.0022,0.0021,0.002,0.0002,0.0,0.0027,0.0027,0.0027,0.0026,0,0.0191,0.0213,0.0221,0.0239,0.0245,0.0257,0.0248,0.0246,0.0229,0.0217,0.0201,0.0149,0.013,0.0103,0.0088,0.0073,0.0062,0.0026,0.0023,0.0023,0.0004,0.0,0.0029,0.0029,0.0028,0.0028,0,0,0.02,0.0238,0.0243,0.0277,0.0283,0.0296,0.0311,0.0324,0.0342,0.0293,0.0298,0.0254,0.0216,0.0203,0.0159,0.0118,0.0085,0.0079,0.0076,0.0074,0.0004,-0.0013,-0.0018,0.0037,0.0036,0.0036,-0.0006,0,0.0236,0.0292,0.0301,0.0362,0.0394,0.0387,0.041,0.0413,0.0397,0.0385,0.032,0.0308,0.0257,0.0241,0.0189,0.0104,0.0078,0.0102,-0.0004,-0.0006,-0.0013,-0.0022,0.0035,-0.0008,-0.0009,-0.001,-0.001,0,0.0267,0.0308,0.0378,0.0446,0.046,0.0494,0.0535,0.0554,0.0528,0.051,0.0471,0.0412,0.0354,0.0295,0.0175,0.019,0.0121,0.005,0.0046,0.0022,-0.0029,-0.0011,-0.0016,-0.0016,-0.0015,-0.0015,-0.0015,0,0.0294,0.0366,0.0435,0.0456,0.0515,0.0557,0.0591,0.0598,0.0628,0.0598,0.059,0.0502,0.0442,0.034,0.0196,0.0187,0.0049,0.0011,-0.0058,-0.0059,-0.0046,-0.0045,-0.005,-0.005,-0.005,-0.005,-0.005,0,0.0334,0.039,0.0463,0.0501,0.0588,0.0618,0.0701,0.0708,0.0723,0.0751,0.0669,0.0638,0.0446,0.0335,0.022,0.0071,0.007,-0.0036,-0.0073,-0.003,-0.0027,-0.0048,-0.0047,-0.0052,-0.0051,-0.0051,-0.0051,0,0.0357,0.0399,0.0484,0.0571,0.0607,0.0675,0.0782,0.0832,0.0843,0.0865,0.086,0.0729,0.0581,0.0407,0.0209,0.0101,-0.0034,-0.0076,0.0007,-0.0027,-0.0111,-0.0108,-0.0154,-0.0155,-0.0156,-0.0156,-0.0157,0,0.0375,0.0424,0.0532,0.0586,0.0638,0.0746,0.0816,0.0881,0.0932,0.0921,0.0919,0.0784,0.0678,0.0397,0.0205,-0.0007,-0.0042,-0.0104,-0.0122,-0.0091,-0.0123,-0.0118,-0.0114,-0.0158,-0.0158,-0.0159,-0.0159,0,0.0415,0.0452,0.0516,0.0623,0.0719,0.0828,0.0933,0.0981,0.104,0.104,0.0966,0.0814,0.0628,0.0388,0.0215,0.0064,-0.0069,-0.0113,-0.0113,-0.0131,-0.0097,-0.0127,-0.0122,-0.0162,-0.0161,-0.0161,-0.0161,0,0.0436,0.0484,0.0563,0.0664,0.0768,0.0879,0.0943,0.1004,0.1059,0.1049,0.101,0.0826,0.0694,0.0426,0.0274,0.0109,0.0063,0.0007,0.0,0.0001,0.0044,0.0109,0.0087,0,0,0,0,0,0.0456,0.0517,0.0601,0.0715,0.0811,0.0886,0.1,0.1056,0.1109,0.1067,0.1049,0.0889,0.0616,0.0483,0.0319,0.0255,0.0037,0.0056,-0.003,-0.0178,-0.0175,-0.0155,0,0,0,0,0,0,0.0474,0.055,0.0601,0.0734,0.0815,0.0945,0.1026,0.1067,0.1048,0.1049,0.0904,0.0835,0.057,0.0707,0.0307,0.0256,0.0177,-0.007,-0.0074,-0.018,-0.0177,-0.0174,-0.0153,0,0,0,0,0]}]]